Helicity
147 119 106 87 77 71 62 51 53 101 92 83 80 73 57 55 44 46 38 37 32 32 39 50 63 76 91
148 131 123 111 99 84 77 59 51 77 64 65 70 66 41 40 33 31 37 30 22 24 31 36 55 78 85
182 138 130 117 101 89 89 73 57 69 58 44 43 51 44 28 43 50 44 25 27 26 28 28 59 82 87
176 145 129 120 105 99 81 75 54 70 57 47 30 27 44 20 50 61 63 44 38 41 35 37 60 82 97
185 170 145 127 113 117 99 89 72 79 74 56 45 39 40 26 29 64 64 61 42 38 32 48 70 88 96
163 158 139 130 114 112 115 116 97 80 98 74 70 63 55 42 42 87 66 60 44 46 46 56 68 90 95
143 139 136 115 113 103 107 110 108 101 89 66 78 67 58 45 42 101 80 65 55 56 62 78 76 93 83
148 140 138 118 109 113 103 98 76 77 82 64 80 74 67 53 63 100 97 86 77 65 74 92 83 88 80
138 130 120 96 88 94 91 89 90 88 77 72 71 77 59 62 68 81 77 91 98 82 93 94 89 71 52
117 91 91 91 72 76 96 100 109 85 86 77 85 97 76 76 90 83 86 83 82 83 101 98 97 15 28
117 116 104 90 86 81 85 85 89 81 85 71 79 86 76 86 64 52 73 78 69 80 100 104 98 66 22
133 113 101 98 95 87 77 71 70 64 55 49 42 45 51 57 57 56 50 38 35 66 67 75 73 73 67
94 97 101 97 93 79 72 70 42 13 1 -4 -9 -7 -4 5 13 14 39 20 17 35 48 56 44 37 51
95 111 110 100 88 70 60 46 31 13 -3 -6 -4 -7 -15 -19 -20 -26 -28 -9 -2 12 19 10 20 17 20
110 106 96 95 70 48 43 37 32 18 13 11 6 2 -6 -11 -17 -23 -25 -36 -42 -40 -11 3 -8 -4 8
101 94 90 69 51 37 35 32 26 21 22 23 20 17 11 2 -9 -10 -15 -14 -30 -43 -59 -28 -10 -23 -14
91 89 67 59 34 37 36 38 43 47 40 36 31 31 32 26 20 5 4 -11 -17 -25 -34 -52 -49 -27 -40
Wind_Speed
33 33 37 37 40 41 43 43 46 54 55 57 59 60 61 62 61 64 68 72 75 77 77 77 77 77 76
35 37 38 38 40 42 44 44 46 53 54 56 58 60 59 62 63 66 70 73 76 77 77 77 77 77 77
42 39 40 41 41 42 44 45 45 52 54 54 56 59 60 59 63 67 70 73 76 78 79 78 79 79 78
42 41 40 41 43 46 48 47 48 52 53 53 55 57 60 59 62 67 71 74 76 79 80 80 81 80 80
43 43 44 45 46 45 50 49 45 50 57 55 58 58 59 59 61 69 72 76 77 79 80 81 82 81 80
44 45 44 43 43 46 47 51 55 47 58 55 56 59 59 59 61 69 73 76 77 80 80 82 82 82 80
44 42 41 40 41 46 49 51 54 53 56 58 54 59 59 58 58 70 74 75 77 79 80 82 81 81 79
40 39 38 37 39 43 47 52 51 48 50 58 55 62 60 56 52 71 72 75 77 77 78 81 81 80 76
37 34 34 36 38 41 47 50 52 50 45 56 57 62 55 52 55 66 71 74 76 75 79 80 80 77 73
38 36 34 34 34 39 42 46 48 50 45 55 57 60 58 49 62 64 69 71 72 73 77 77 78 74 72
37 37 37 37 37 35 35 40 43 46 44 48 52 55 55 62 62 59 67 69 68 72 73 74 74 72 71
37 37 35 35 34 32 33 35 36 41 42 42 47 50 54 59 60 64 66 65 62 69 69 71 70 69 67
35 34 33 31 30 31 32 33 34 34 33 35 40 45 47 52 58 62 66 63 61 67 69 69 68 67 68
33 31 30 30 31 28 27 27 30 29 30 33 35 39 45 48 52 57 58 59 65 66 69 67 66 64 64
31 30 30 28 26 24 24 25 27 27 29 31 34 38 42 45 49 52 56 59 63 67 67 66 65 64 65
33 32 28 24 20 20 19 20 23 27 30 33 37 41 43 41 40 50 53 59 63 64 65 67 68 66 66
31 28 25 21 19 20 18 18 23 27 30 33 34 37 44 48 45 45 56 61 63 64 65 67 70 72 71
Wind_Direction
314 317 322 326 329 331 332 333 334 334 335 335 335 335 336 336 337 335 335 334 331 329 328 326 326 324 321
305 308 313 320 323 324 327 329 330 331 332 333 334 334 334 333 334 333 332 331 330 328 327 326 324 322 321
299 303 307 312 315 318 321 324 327 330 330 331 332 332 332 333 333 332 332 331 330 329 327 326 324 322 320
295 297 302 307 309 311 312 319 318 324 328 329 329 331 331 329 332 332 331 330 329 329 328 326 324 322 321
292 294 296 300 302 309 309 314 319 324 323 323 324 326 329 329 328 329 327 327 327 327 327 326 324 322 322
289 290 294 298 302 305 309 311 309 323 321 321 326 324 326 326 326 327 326 325 326 326 326 325 323 321 320
288 290 292 296 300 302 306 309 311 318 320 314 324 322 325 325 324 325 325 325 324 324 325 324 322 320 319
290 291 295 297 301 304 307 308 311 317 322 313 323 319 324 325 327 326 325 325 323 323 324 324 322 320 317
290 293 296 299 303 305 305 307 308 312 321 317 319 320 324 325 326 327 326 325 324 323 322 322 321 320 317
282 288 295 300 303 306 307 307 310 311 318 318 320 322 318 325 326 327 327 326 325 325 323 322 321 319 316
279 285 291 295 300 306 310 309 311 313 322 322 321 323 321 319 322 328 328 328 327 326 325 323 322 320 314
277 281 287 293 298 303 309 313 317 317 323 327 324 325 324 324 323 325 327 329 329 328 327 324 322 320 317
274 280 287 293 298 303 308 312 318 325 332 333 332 332 331 329 328 328 328 329 330 327 325 324 321 319 315
274 280 286 289 294 301 306 314 317 323 332 336 339 338 334 334 333 332 334 333 330 328 325 321 319 316 314
272 276 281 288 292 299 306 311 313 321 328 335 338 337 336 335 334 336 335 335 335 331 328 323 318 313 311
271 275 279 281 289 295 304 309 312 318 323 328 330 333 336 340 341 336 336 333 332 332 330 325 320 315 310
271 272 273 277 276 285 295 303 308 315 320 327 331 332 330 330 338 340 333 329 328 328 328 325 320 316 308